Location: Hylvaty SDH
(49.9612°N, 16.4057°E)
Time: 20:22:17
(UTC+02:00)

Transit 4A - Pass Details

Date: 15 August 2020
Orbit: 862 x 982 km, 66.8° (Epoch: 28 September)

Event Time Altitude Azimuth Distance (km) Brightness Sun altitude
Rises 15:24:32 0° 320° (NW) 3,628 11.0 43.2°
Reaches altitude 10° 15:27:29 10° 332° (NNW) 2,698 10.4 42.9°
Maximum altitude 15:32:50 28° 30° (NNE) 1,752 9.2 42.2°
Drops below altitude 10° 15:38:13 10° 88° (E) 2,733 10.1 41.5°
Sets 15:41:13 0° 100° (E) 3,683 10.7 41.1°
